This is the latest recevied weather packets stored in our database for station/object OK2JCZ-6. If no packets are shown the sender has not sent any weather packets the latest 10 day(s).
| Time | Temp. | Humidity | Pressure | Rain* | Wind** | Luminosity | Snow |
|---|---|---|---|---|---|---|---|
| 1777471476 | 10.56° C | 28% | 1023.4 hPa | 0 mm | - | - | - |
| 1777471176 | 10.56° C | 29% | 1023.4 hPa | 0 mm | - | - | - |
| 1777470876 | 11.11° C | 28% | 1023.3 hPa | 0 mm | - | - | - |
| 1777470577 | 11.11° C | 31% | 1023.3 hPa | 0 mm | - | - | - |
| 1777469976 | 11.11° C | 29% | 1023.3 hPa | 0 mm | - | - | - |
| 1777469376 | 11.11° C | 30% | 1023.2 hPa | 0 mm | - | - | - |
| 1777469076 | 11.11° C | 30% | 1023.2 hPa | 0 mm | - | - | - |
| 1777468776 | 11.11° C | 31% | 1023.2 hPa | 0 mm | - | - | - |
| 1777468476 | 11.11° C | 31% | 1023.1 hPa | 0 mm | - | - | - |
| 1777467876 | 11.67° C | 31% | 1023.1 hPa | 0 mm | - | - | - |
| 1777467576 | 11.67° C | 31% | 1023 hPa | 0 mm | - | - | - |
| 1777466676 | 11.67° C | 31% | 1023 hPa | 0 mm | - | - | - |
| 1777465777 | 12.22° C | 30% | 1022.8 hPa | 0 mm | - | - | - |
| 1777465478 | 12.22° C | 30% | 1022.9 hPa | 0 mm | - | - | - |
| 1777464876 | 12.22° C | 29% | 1022.7 hPa | 0 mm | - | - | - |
| 1777464576 | 12.22° C | 30% | 1022.8 hPa | 0 mm | - | - | - |
| 1777464276 | 11.67° C | 29% | 1022.8 hPa | 0 mm | - | - | - |
| 1777462776 | 11.67° C | 30% | 1022.9 hPa | 0 mm | - | - | - |
| 1777462176 | 11.11° C | 29% | 1023 hPa | 0 mm | - | - | - |
| 1777461876 | 11.11° C | 29% | 1023.1 hPa | 0 mm | - | - | - |
| 1777461576 | 11.11° C | 30% | 1023.1 hPa | 0 mm | - | - | - |
| 1777460976 | 12.22° C | 28% | 1023.1 hPa | 0 mm | - | - | - |
| 1777460676 | 11.67° C | 27% | 1023.2 hPa | 0 mm | - | - | - |
| 1777460377 | 11.67° C | 27% | 1023.2 hPa | 0 mm | - | - | - |
| 1777460076 | 12.22° C | 26% | 1023.2 hPa | 0 mm | - | - | - |
* Rain latest hour (hover to see other rain measurements)
** Current wind speed in m/s (hover to see current wind gust speed)